CAPE
0 0 0 0 0 0 0 0 0 0 0 0 0 0 0 0 0 0 0 0 0 0
0 0 0 0 0 0 0 0 0 0 0 0 0 0 0 0 0 0 0 0 0 0
0 0 0 0 0 0 0 0 0 0 0 0 0 0 0 0 0 0 0 0 0 0
0 0 0 0 0 0 0 0 0 0 0 0 0 0 0 0 0 0 0 0 0 0
0 0 0 0 0 0 0 0 0 0 0 0 0 0 0 0 0 0 0 0 0 0
0 0 0 0 0 0 0 0 0 0 0 0 0 0 0 0 0 0 0 0 0 0
0 0 0 0 0 0 0 0 0 0 0 0 0 0 0 0 0 0 0 0 0 0
0 0 0 0 0 0 0 0 0 0 0 0 0 0 0 0 0 0 0 0 0 0
0 0 0 0 0 0 0 0 0 0 0 0 0 0 0 0 0 0 0 0 0 0
0 0 0 0 0 0 0 0 0 0 0 0 0 0 0 0 0 0 0 0 0 0
0 0 0 0 0 0 0 0 0 0 0 0 0 0 0 0 0 0 0 0 0 0
0 0 0 0 0 0 0 0 0 0 0 0 0 0 0 0 0 0 0 0 0 0
0 0 0 0 0 0 0 0 0 0 0 0 0 0 0 0 0 0 0 0 0 0
0 0 0 0 0 0 0 0 0 0 0 0 0 0 0 0 0 0 0 0 0 0
CIN
0 0 0 0 0 0 0 0 0 0 0 0 0 0 0 0 0 0 0 0 0 0
0 0 0 0 0 0 0 0 0 0 0 0 0 0 0 0 0 0 0 0 0 0
0 0 0 0 0 0 0 0 0 0 0 0 0 0 0 0 0 0 0 0 0 0
0 0 0 0 0 0 0 0 0 0 0 0 0 0 0 0 0 0 0 0 0 0
0 0 0 0 0 0 0 0 0 0 0 0 0 0 0 0 0 0 0 0 0 0
0 0 0 0 0 0 0 0 0 0 0 0 0 0 0 0 0 0 0 0 0 0
0 0 0 0 0 0 0 0 0 0 0 0 0 0 0 0 0 0 0 0 0 0
0 0 0 0 0 0 0 0 0 0 0 0 0 0 0 0 0 0 0 0 0 0
0 0 0 0 0 0 0 0 0 0 0 0 0 0 0 0 0 0 0 0 0 0
0 0 0 0 0 0 0 0 0 0 0 0 0 0 0 0 0 0 0 0 0 0
0 0 0 0 0 0 0 0 0 0 0 0 0 0 0 0 0 0 0 0 0 0
0 0 0 0 0 0 0 0 0 0 0 0 0 0 0 0 0 0 0 0 0 0
0 0 0 0 0 0 0 0 0 0 0 0 0 0 0 0 0 0 0 0 0 0
0 0 0 0 0 0 0 0 0 0 0 0 0 0 0 0 0 0 0 0 0 0
Wind_Speed
35 33 33 32 27 28 29 30 30 26 24 27 31 33 31 33 35 35 36 37 35 35
36 37 39 38 34 32 30 29 30 28 26 26 29 32 32 35 37 33 35 36 35 34
26 31 34 36 39 38 37 33 29 28 29 29 29 30 32 35 35 35 36 36 35 35
26 26 26 29 34 35 36 36 36 34 31 30 31 31 32 36 36 36 37 35 35 37
27 28 28 28 29 31 34 34 35 36 35 34 32 30 32 35 37 39 40 39 38 39
30 30 31 31 31 31 31 32 34 35 37 37 37 36 34 32 35 37 40 41 40 41
33 33 33 33 33 32 32 32 33 34 36 38 38 37 37 36 37 36 38 40 41 41
36 35 35 36 35 35 34 34 34 34 35 36 37 38 38 39 39 38 39 40 41 42
39 38 39 39 39 38 38 37 37 37 36 36 36 38 40 40 41 42 41 40 41 42
41 41 41 42 41 41 41 40 40 40 39 39 38 38 39 41 42 43 43 44 44 42
43 45 44 44 44 43 43 43 43 43 42 42 41 41 41 41 41 41 43 43 43 45
45 46 46 46 47 46 45 46 45 44 45 45 45 43 43 42 42 42 43 42 43 43
47 47 48 48 48 46 46 47 47 47 46 46 46 45 45 44 43 44 44 43 42 42
48 48 48 48 48 48 49 49 49 49 48 47 46 46 46 46 45 45 47 45 45 42
Wind_Direction
274 281 282 284 289 288 287 285 284 286 285 281 275 271 272 270 267 266 263 263 264 265
276 275 276 278 284 287 288 289 288 287 286 284 280 275 273 270 268 270 268 267 268 269
310 290 283 283 279 281 282 286 288 287 285 284 282 279 275 273 271 270 269 269 269 270
324 322 312 297 289 286 285 284 283 284 285 284 282 280 278 275 272 271 271 271 270 270
324 323 320 316 311 302 291 289 286 284 284 284 284 283 280 277 275 272 271 271 271 271
318 321 321 319 315 312 308 300 292 289 285 283 282 282 281 280 278 275 273 271 271 271
314 314 317 317 317 315 313 309 305 298 291 287 285 283 282 281 280 279 276 274 272 271
311 312 313 313 313 314 312 310 308 306 302 295 290 287 284 282 281 280 279 277 275 273
309 309 309 309 309 309 309 309 308 306 305 303 300 294 288 285 283 281 280 280 279 276
309 308 307 307 306 306 305 305 304 304 304 301 302 301 297 292 287 283 281 280 280 280
308 307 307 306 305 304 304 303 302 302 302 301 301 301 300 298 294 289 285 283 281 280
308 307 306 305 304 304 303 302 301 300 299 300 299 301 301 300 297 293 290 288 285 283
307 306 305 304 304 304 304 302 302 300 299 298 297 298 299 299 297 294 293 292 291 288
306 305 305 304 304 303 302 302 301 300 299 298 298 297 297 298 297 296 293 293 292 293